Find GPS II-2

NORAD ID: 20061 Int'l Des: 1989-044 Owner: AFSSD2 Country: US Constellation: GPS operational
MEOCIRCULAR

Current View

Loading 3D Globe...

About GPS II-2

Description loading...

Upcoming Passes

Passes for default location (London). Set your location on the main map for personalized predictions.

Altitude History

Loading altitude history...

Two-Line Element Set

1 20061U 89044A 26148.32391125 -.00000025 00000-0 00000+0 0 9998
2 20061 53.3138 240.4290 0028194 210.7201 202.3856 1.88858327261412
Epoch: May 28, 2026 • Age: 78 hours

Current Status

Altitude 21289.1 km
Velocity 3.80 km/s
Sub-Earth Point 48.91°N, 97.89°W
Launch Date Jun 10, 1989
Age 36.9 years
Type navigation

Technical Details

Classification Payload
Mass 776.00 kg
Dry Mass 776.00 kg
Total Mass 1667.00 kg
Length 2.40 m
Diameter 1.80 m
Span 5.30 m
Shape Box + 2 Pan
Manufacturer RWISB
Bus Type GPS II
Phase Status In Orbit
Owner/State AFSSD2/US

Most Searched